Location: Rancho Del Sol Observatory
(38.7214°N, 120.6350°W)
Time: 06:53:28
(UTC-08:00)

A-11 Canister half - Pass Details

Date: 28 January 2020
Orbit: 1517 x 1683 km, 47.2° (Epoch: 23 February)

Event Time Altitude Azimuth Distance (km) Brightness Sun altitude
Rises 01:32:17 0° 279° (W) 4,714 - -63.6°
Reaches altitude 10° 01:35:31 10° 284° (WNW) 3,713 - -63.2°
Maximum altitude 01:44:32 50° 359° (N) 1,860 - -61.8°
Exits shadow 01:52:47 13° 72° (ENE) 3,471 11.1 -60.6°
Drops below altitude 10° 01:53:29 10° 74° (ENE) 3,680 11.3 -60.5°
Sets 01:56:40 0° 79° (E) 4,669 11.9 -60.0°
